TimeMDT,TemperatureF,Dew PointF,Humidity,Sea Level PressureIn,VisibilityMPH,Wind Direction,Wind SpeedMPH,Gust SpeedMPH,PrecipitationIn,Events,Conditions,WindDirDegrees,DateUTC
2:45 AM,75,69,77,29.91,2,South,4.5,,,,,180,2012-10-09 08:45:00
5:50 AM,73,66,73,29.94,2,South,4.5,,,,,180,2012-10-09 11:50:00
6:10 AM,68.0,64.4,88,30.00,10.0,South,8.1,-,N/A,,Clear,170,2012-10-09 12:10:00
6:44 AM,68.0,64.4,88,29.95,10.0,South,9.2,-,N/A,,Clear,170,2012-10-09 12:44:00
7:41 AM,68.0,64.4,88,29.96,10.0,South,9.2,-,N/A,,Clear,180,2012-10-09 13:41:00
8:50 AM,78,65,57,29.98,12,South,4.5,,,,,180,2012-10-09 14:50:00
8:52 AM,73.4,66.2,78,30.04,10.0,South,8.1,-,N/A,,Clear,170,2012-10-09 14:52:00
9:41 AM,77.0,62.6,61,29.99,10.0,South,9.2,-,N/A,,Clear,190,2012-10-09 15:41:00
10:42 AM,80.6,60.8,51,29.98,10.0,SSW,6.9,-,N/A,,Clear,210,2012-10-09 16:42:00
11:41 AM,82.4,60.8,48,30.02,10.0,SSW,4.6,-,N/A,,Clear,200,2012-10-09 17:41:00
11:50 AM,87,64,36,29.96,19,South,6.7,,,,,190,2012-10-09 17:50:00
12:41 PM,87.8,59.0,38,29.94,12.0,SE,3.5,-,N/A,,Clear,130,2012-10-09 18:41:00
1:44 PM,91.4,51.8,26,29.91,12.0,WSW,10.4,-,N/A,,Clear,250,2012-10-09 19:44:00
2:40 PM,93.2,51.8,24,29.95,12.0,WSW,4.6,-,N/A,,Clear,240,2012-10-09 20:40:00
2:50 PM,96,56,17,29.89,19,SSW,6.7,,,,,200,2012-10-09 20:50:00
3:41 PM,93.2,50.0,23,29.88,12.0,WSW,6.9,-,N/A,,Scattered Clouds,240,2012-10-09 21:41:00
4:51 PM,89.6,51.8,27,29.87,10.0,WSW,11.5,-,N/A,,Mostly Cloudy,240,2012-10-09 22:51:00
5:50 PM,93,61,25,29.87,2,WSW,6.7,,,,Scattered Clouds,240,2012-10-09 23:50:00
5:51 PM,89.6,60.8,38,29.98,10.0,SW,9.2,-,N/A,,Mostly Cloudy,230,2012-10-09 23:51:00
6:58 PM,82.4,66.2,58,29.89,10.0,SSW,9.2,-,N/A,,Scattered Clouds,210,2012-10-10 00:58:00
7:50 PM,80.6,66.2,61,29.90,10.0,South,6.9,-,N/A,,Scattered Clouds,180,2012-10-10 01:50:00
8:41 PM,77.0,66.2,69,30.01,10.0,South,5.8,-,N/A,,Scattered Clouds,190,2012-10-10 02:41:00
8:50 PM,81,69,60,29.92,2,South,6.7,,,,,180,2012-10-10 02:50:00
10:07 PM,75.2,68.0,78,29.95,10.0,SSE,6.9,-,N/A,,Scattered Clouds,150,2012-10-10 04:07:00
10:40 PM,73.4,68.0,83,29.96,10.0,SSE,6.9,-,N/A,,Scattered Clouds,160,2012-10-10 04:40:00